Mojave, CA

11:49 PM PST on December 09, 2019 (GMT -0800)
Mojave

Weather History for KMHV - May, 2019

Change the Weather History Date:

Sunday, May 19, 2019

  Actual Average Record
Temperature  
Mean Temperature 53 °F -  
Max Temperature 62 °F 83 °F 102 °F (1997)
Min Temperature 44 °F 55 °F 44 °F (2019)
Degree Days  
Heating Degree Days 12    
Growing Degree Days 3 (Base 50)    
Moisture  
Dew Point 41 °F    
Average Humidity 70    
Maximum Humidity 100    
Minimum Humidity 34    
Precipitation  
Precipitation 0.00 in - - ()
Sea Level Pressure  
Sea Level Pressure 29.81 in    
Wind  
Wind Speed 18 mph (WSW)    
Max Wind Speed 31 mph    
Max Gust Speed 39 mph    
Visibility 10 miles    
Events      
Averages and records for this station are not official NWS values.
T = Trace of Precipitation, MM = Missing Value Source: NWS Daily Summary

Daily Weather History Graph

Daily Weather History Graph

Search for Another Location

Airport or City:

Astronomy

May. 19, 2019 Rise Set
Actual Time 5:46 AM PDT 7:52 PM PDT
Civil Twilight 5:17 AM PDT 8:20 PM PDT
Nautical Twilight 4:43 AM PDT 8:55 PM PDT
Astronomical Twilight 4:05 AM PDT 9:32 PM PDT
Moon 8:57 PM PDT (5/19) 6:33 AM PDT (5/19)
Length of Visible Light 15h 03m
Length of Day
14h 06m
Full, 99% of the Moon is Illuminated
May 19
Full
May 26
Last Quarter
Jun 3
New
Jun 9
First Quarter
Jun 17
Full

Hourly Weather History & Observations

Time (PDT) Temp. Windchill Dew Point Humidity Pressure Visibility Wind Dir Wind Speed Gust Speed Precip Events Conditions
12:00 AM 51.8 °F - 41.0 °F 67% 29.85 in 10.0 mi West 23.0 mph 31.1 mph N/A   Mostly Cloudy
12:20 AM 51.8 °F - 41.0 °F 67% 29.85 in 10.0 mi SW 15.0 mph 26.5 mph N/A   Overcast
12:40 AM 50.0 °F - 41.0 °F 71% 29.84 in 10.0 mi West 19.6 mph 27.6 mph N/A   Mostly Cloudy
1:00 AM 50.0 °F - 41.0 °F 71% 29.85 in 10.0 mi WSW 20.7 mph 28.8 mph N/A   Mostly Cloudy
1:20 AM 50.0 °F - 39.2 °F 66% 29.85 in 10.0 mi West 24.2 mph 35.7 mph N/A   Overcast
1:40 AM 50.0 °F - 39.2 °F 66% 29.83 in 10.0 mi WSW 23.0 mph 32.2 mph N/A   Overcast
2:00 AM 50.0 °F - 41.0 °F 71% 29.82 in 10.0 mi SW 12.7 mph 24.2 mph N/A   Overcast
2:20 AM 48.2 °F - 44.6 °F 87% 29.84 in 10.0 mi SW 13.8 mph - N/A   Overcast
2:40 AM 48.2 °F - 44.6 °F 87% 29.83 in 10.0 mi SSW 10.4 mph - N/A   Overcast
3:00 AM 48.2 °F - 44.6 °F 87% 29.83 in 10.0 mi SSW 15.0 mph 20.7 mph N/A   Overcast
3:20 AM 46.4 °F 40.4 °F 44.6 °F 93% 29.82 in 10.0 mi SSW 13.8 mph - N/A   Overcast
3:40 AM 46.4 °F 39.5 °F 42.8 °F 87% 29.83 in 10.0 mi SW 17.3 mph 23.0 mph N/A   Overcast
4:00 AM 46.4 °F 40.4 °F 44.6 °F 93% 29.83 in 10.0 mi SW 13.8 mph - N/A   Overcast
4:20 AM 46.4 °F 40.4 °F 44.6 °F 93% 29.81 in 10.0 mi South 13.8 mph - N/A   Overcast
4:40 AM 46.4 °F 40.7 °F 44.6 °F 93% 29.80 in 10.0 mi SSW 12.7 mph - N/A   Mostly Cloudy
5:00 AM 44.6 °F 38.1 °F 44.6 °F 100% 29.80 in 10.0 mi SSW 13.8 mph - N/A   Overcast
5:20 AM 44.6 °F 38.1 °F 44.6 °F 100% 29.80 in 10.0 mi SW 13.8 mph - N/A   Mostly Cloudy
5:40 AM 44.6 °F 39.2 °F 42.8 °F 93% 29.79 in 10.0 mi SW 10.4 mph - N/A   Overcast
6:00 AM 44.6 °F 40.2 °F 42.8 °F 93% 29.79 in 10.0 mi SW 8.1 mph - N/A   Mostly Cloudy
6:20 AM 44.6 °F 40.7 °F 44.6 °F 100% 29.81 in 10.0 mi SW 6.9 mph - N/A   Mostly Cloudy
6:40 AM 46.4 °F 41.5 °F 44.6 °F 93% 29.81 in 10.0 mi SSW 10.4 mph - N/A   Overcast
7:00 AM 46.4 °F 42.4 °F 44.6 °F 93% 29.80 in 10.0 mi SSW 8.1 mph - N/A   Overcast
7:20 AM 46.4 °F 42.4 °F 46.4 °F 100% 29.80 in 10.0 mi SW 8.1 mph - N/A   Scattered Clouds
7:40 AM 50.0 °F - 44.6 °F 82% 29.80 in 10.0 mi SSW 10.4 mph - N/A   Clear
8:00 AM 50.0 °F - 44.6 °F 82% 29.80 in 10.0 mi SSW 12.7 mph - N/A   Mostly Cloudy
8:20 AM 51.8 °F - 44.6 °F 76% 29.80 in 10.0 mi SW 17.3 mph - N/A   Scattered Clouds
8:40 AM 51.8 °F - 42.8 °F 71% 29.80 in 10.0 mi SW 20.7 mph 27.6 mph N/A   Mostly Cloudy
9:00 AM 53.6 °F - 44.6 °F 72% 29.80 in 10.0 mi SW 18.4 mph - N/A   Mostly Cloudy
9:20 AM 53.6 °F - 44.6 °F 72% 29.81 in 10.0 mi SSW 19.6 mph 26.5 mph N/A   Mostly Cloudy
9:40 AM 53.6 °F - 44.6 °F 72% 29.81 in 10.0 mi SSW 19.6 mph - N/A   Mostly Cloudy
10:00 AM 53.6 °F - 44.6 °F 72% 29.81 in 10.0 mi SSW 17.3 mph - N/A   Overcast
10:20 AM 53.6 °F - 44.6 °F 72% 29.81 in 10.0 mi SW 13.8 mph - N/A   Overcast
10:40 AM 55.4 °F - 42.8 °F 63% 29.81 in 10.0 mi SW 16.1 mph - N/A   Mostly Cloudy
11:00 AM 55.4 °F - 44.6 °F 67% 29.81 in 10.0 mi SW 19.6 mph - N/A   Overcast
11:20 AM 55.4 °F - 42.8 °F 63% 29.81 in 10.0 mi SW 13.8 mph 21.9 mph N/A   Mostly Cloudy
11:40 AM 57.2 °F - 41.0 °F 55% 29.81 in 10.0 mi SSW 10.4 mph - N/A   Mostly Cloudy
12:00 PM 57.2 °F - 39.2 °F 51% 29.80 in 10.0 mi WNW 25.3 mph - N/A   Mostly Cloudy
12:20 PM 57.2 °F - 41.0 °F 55% 29.81 in 10.0 mi West 27.6 mph 35.7 mph N/A   Mostly Cloudy
12:40 PM 55.4 °F - 39.2 °F 54% 29.81 in 10.0 mi WNW 19.6 mph 32.2 mph N/A   Scattered Clouds
1:00 PM 57.2 °F - 39.2 °F 51% 29.80 in 10.0 mi West 25.3 mph 34.5 mph N/A   Scattered Clouds
1:20 PM 59.0 °F - 39.2 °F 48% 29.81 in 10.0 mi West 25.3 mph 35.7 mph N/A   Partly Cloudy
1:40 PM 57.2 °F - 41.0 °F 55% 29.80 in 10.0 mi West 28.8 mph 36.8 mph N/A   Scattered Clouds
2:00 PM 59.0 °F - 39.2 °F 48% 29.80 in 10.0 mi West 28.8 mph 39.1 mph N/A   Partly Cloudy
2:20 PM 59.0 °F - 39.2 °F 48% 29.79 in 10.0 mi West 25.3 mph 33.4 mph N/A   Clear
2:40 PM 60.8 °F - 37.4 °F 42% 29.79 in 10.0 mi West 29.9 mph 36.8 mph N/A   Clear
3:00 PM 60.8 °F - 33.8 °F 36% 29.78 in 10.0 mi West 27.6 mph 36.8 mph N/A   Clear
3:20 PM 60.8 °F - 33.8 °F 36% 29.78 in 10.0 mi West 27.6 mph 36.8 mph N/A   Clear
3:40 PM 62.6 °F - 33.8 °F 34% 29.77 in 10.0 mi WNW 31.1 mph 38.0 mph N/A   Scattered Clouds
4:00 PM 59.0 °F - 33.8 °F 39% 29.76 in 10.0 mi West 29.9 mph 36.8 mph N/A   Partly Cloudy
4:20 PM 55.4 °F - 37.4 °F 51% 29.78 in 10.0 mi WNW 31.1 mph 38.0 mph N/A   Partly Cloudy
4:40 PM 55.4 °F - 37.4 °F 51% 29.77 in 10.0 mi WNW 19.6 mph 32.2 mph N/A   Partly Cloudy
5:00 PM 53.6 °F - 37.4 °F 54% 29.77 in 10.0 mi West 21.9 mph 33.4 mph N/A   Scattered Clouds
5:20 PM 53.6 °F - 37.4 °F 54% 29.77 in 10.0 mi WNW 21.9 mph 31.1 mph N/A   Mostly Cloudy
5:40 PM 51.8 °F - 37.4 °F 58% 29.78 in 10.0 mi West 16.1 mph - N/A   Mostly Cloudy
6:00 PM 50.0 °F - 37.4 °F 62% 29.79 in 10.0 mi West 19.6 mph 26.5 mph N/A   Mostly Cloudy
6:20 PM 48.2 °F - 39.2 °F 71% 29.80 in 10.0 mi West 17.3 mph 25.3 mph N/A   Overcast
6:40 PM 48.2 °F - 37.4 °F 66% 29.80 in 10.0 mi West 15.0 mph - N/A   Mostly Cloudy
7:00 PM 46.4 °F 39.5 °F 39.2 °F 76% 29.81 in 10.0 mi West 17.3 mph - N/A   Overcast
7:20 PM 46.4 °F 41.1 °F 41.0 °F 81% 29.80 in 10.0 mi SW 11.5 mph - N/A   Mostly Cloudy
7:40 PM 46.4 °F 39.5 °F 39.2 °F 76% 29.80 in 10.0 mi West 17.3 mph - N/A   Mostly Cloudy
8:00 PM 46.4 °F 39.5 °F 39.2 °F 76% 29.81 in 10.0 mi WSW 17.3 mph - N/A   Mostly Cloudy
8:20 PM 46.4 °F 39.5 °F 41.0 °F 81% 29.80 in 10.0 mi WSW 17.3 mph 26.5 mph N/A   Mostly Cloudy
8:40 PM 48.2 °F - 39.2 °F 71% 29.79 in 10.0 mi WSW 18.4 mph - N/A   Scattered Clouds
9:00 PM 48.2 °F - 39.2 °F 71% 29.79 in 10.0 mi WSW 23.0 mph 33.4 mph N/A   Partly Cloudy
9:20 PM 48.2 °F - 37.4 °F 66% 29.79 in 10.0 mi WSW 25.3 mph - N/A   Scattered Clouds
9:40 PM 48.2 °F - 35.6 °F 62% 29.80 in 10.0 mi WSW 16.1 mph 23.0 mph N/A   Mostly Cloudy
10:00 PM 48.2 °F - 35.6 °F 62% 29.81 in 10.0 mi SW 15.0 mph 24.2 mph N/A   Mostly Cloudy
10:20 PM 48.2 °F - 37.4 °F 66% 29.82 in 10.0 mi West 12.7 mph 21.9 mph N/A   Overcast
10:40 PM 46.4 °F 40.4 °F 35.6 °F 66% 29.83 in 10.0 mi WSW 13.8 mph 21.9 mph N/A   Overcast
11:00 PM 46.4 °F 39.2 °F 35.6 °F 66% 29.81 in 10.0 mi SW 18.4 mph 26.5 mph N/A   Overcast
11:20 PM 46.4 °F 40.4 °F 35.6 °F 66% 29.81 in 10.0 mi SW 13.8 mph 20.7 mph N/A   Overcast
11:40 PM 46.4 °F 39.2 °F 37.4 °F 71% 29.81 in 10.0 mi SW 18.4 mph 24.2 mph N/A   Overcast